New Windsor, NY

10:14 PM EST on February 19, 2017 (GMT -0500)
Stewart International

Weather History for KSWF - August, 2013

Change the Weather History Date:

Thursday, August 29, 2013

  Actual Average Record
Temperature  
Mean Temperature 72 °F -  
Max Temperature 78 °F 76 °F 96 °F (1993)
Min Temperature 66 °F 57 °F 36 °F (1982)
Cooling Degree Days 7    
Growing Degree Days 22 (Base 50)    
Moisture  
Dew Point 68 °F    
Average Humidity 89    
Maximum Humidity 100    
Minimum Humidity 69    
Precipitation  
Precipitation 0.00 in - - ()
Sea Level Pressure  
Sea Level Pressure 30.02 in    
Wind  
Wind Speed 5 mph (East)    
Max Wind Speed 12 mph    
Max Gust Speed -    
Visibility 6 miles    
Events Fog    
Averages and records for this station are not official NWS values.
T = Trace of Precipitation, MM = Missing Value Source: NWS Daily Summary

Daily Weather History Graph

Daily Weather History Graph

Search for Another Location

Airport or City:

Trip Planner

Search our weather history database for the weather conditions in past years. The results will help you decide how hot, cold, wet, or windy it might be!

Date:

Astronomy

Aug. 29, 2013 Rise Set
Actual Time 6:19 AM EDT 7:33 PM EDT
Civil Twilight 5:51 AM EDT 8:02 PM EDT
Nautical Twilight 5:16 AM EDT 8:36 PM EDT
Astronomical Twilight 4:40 AM EDT 9:12 PM EDT
Moon 12:07 AM EDT (8/29) 3:02 PM EDT (8/29)
Length of Visible Light 14h 11m
Length of Day
13h 14m
Last Quarter, 38% of the Moon is Illuminated
Aug 29
Last Quarter
Sep 5
New
Sep 12
First Quarter
Sep 19
Full
Sep 26
Last Quarter

Hourly Weather History & Observations

Time (EDT) Temp. Dew Point Humidity Pressure Visibility Wind Dir Wind Speed Gust Speed Precip Events Conditions
12:45 AM 66.2 °F 66.2 °F 100% 29.94 in 0.2 mi Variable 4.6 mph - N/A   Unknown
1:45 AM 68.0 °F 68.0 °F 100% 29.94 in 0.5 mi Variable 3.5 mph - N/A Fog Fog
3:45 AM 66.2 °F 66.2 °F 100% 29.96 in 0.5 mi Calm Calm - N/A Fog Fog
4:45 AM 66.2 °F 66.2 °F 100% 29.97 in 1.5 mi Variable 3.5 mph - N/A   Overcast
5:45 AM 66.2 °F 66.2 °F 100% 29.97 in 2.0 mi Variable 3.5 mph - N/A   Overcast
7:50 AM 68.0 °F 68.0 °F 100% 30.01 in 2.5 mi Variable 4.6 mph - N/A   Overcast
8:50 AM 68.0 °F 68.0 °F 100% 30.03 in 1.5 mi ENE 6.9 mph - N/A   Overcast
9:45 AM 69.8 °F 69.8 °F 100% 30.04 in 2.5 mi NE 5.8 mph - N/A   Overcast
10:50 AM 69.8 °F 68.0 °F 94% 30.05 in 4.0 mi ENE 11.5 mph - N/A   Overcast
11:45 AM 73.4 °F 68.0 °F 83% 30.05 in 6.0 mi ENE 6.9 mph - N/A   Mostly Cloudy
12:45 PM 73.4 °F - N/A% 30.05 in 6.0 mi North 5.8 mph - N/A   Mostly Cloudy
1:45 PM 73.4 °F 68.0 °F 83% 30.05 in 6.0 mi NE 6.9 mph - N/A   Mostly Cloudy
2:45 PM 77.0 °F 68.0 °F 74% 30.03 in 10.0 mi Calm Calm - N/A   Mostly Cloudy
3:45 PM 77.0 °F 68.0 °F 74% 30.02 in 10.0 mi ESE 6.9 mph - N/A   Mostly Cloudy
4:45 PM 78.8 °F 68.0 °F 69% 30.02 in 10.0 mi East 6.9 mph - N/A   Mostly Cloudy
5:45 PM 77.0 °F 68.0 °F 74% 30.03 in 10.0 mi SSE 6.9 mph - N/A   Mostly Cloudy
6:45 PM 75.2 °F 68.0 °F 78% 30.03 in 10.0 mi SSE 6.9 mph - N/A   Mostly Cloudy
7:45 PM 73.4 °F 68.0 °F 83% 30.03 in 10.0 mi SSE 6.9 mph - N/A   Mostly Cloudy
8:45 PM 71.6 °F 68.0 °F 88% 30.04 in 10.0 mi Calm Calm - N/A   Mostly Cloudy
9:45 PM 69.8 °F 66.2 °F 88% 30.05 in 10.0 mi Calm Calm - N/A   Mostly Cloudy
11:45 PM 68.0 °F 66.2 °F 94% 30.05 in 10.0 mi South 5.8 mph - N/A   Mostly Cloudy